Diyarbakir, Turkey

9:18 PM +03 on April 28, 2017 (GMT +0300)
Diyarbakir

Weather History for LTCC - October, 2012

Change the Weather History Date:

Friday, October 12, 2012

  Actual Average Record
Temperature  
Mean Temperature 64 °F -  
Max Temperature 77 °F 71 °F 91 °F (2002)
Min Temperature 51 °F 47 °F 46 °F (1998)
Degree Days  
Heating Degree Days 1    
Growing Degree Days 14 (Base 50)    
Moisture  
Dew Point 44 °F    
Average Humidity 49    
Maximum Humidity 88    
Minimum Humidity 16    
Precipitation  
Precipitation 0.00 in 0.05 in - ()
Sea Level Pressure  
Sea Level Pressure 29.97 in    
Wind  
Wind Speed 7 mph ()    
Max Wind Speed 15 mph    
Max Gust Speed -    
Visibility 6.7 miles    
Events      
Averages and records for this station are not official NWS values.
T = Trace of Precipitation, MM = Missing Value Source: Averaged Metar Reports

Daily Weather History Graph

Daily Weather History Graph

Search for Another Location

Airport or City:

Trip Planner

Search our weather history database for the weather conditions in past years. The results will help you decide how hot, cold, wet, or windy it might be!

Date:

Astronomy

Oct. 12, 2012 Rise Set
Actual Time 6:24 AM EEST 5:45 PM EEST
Civil Twilight 5:58 AM EEST 6:12 PM EEST
Nautical Twilight 5:28 AM EEST 6:42 PM EEST
Astronomical Twilight 4:57 AM EEST 7:12 PM EEST
Moon 2:47 AM EEST (10/12) 3:40 PM EEST (10/12)
Length of Visible Light 12h 13m
Length of Day
11h 20m
Waning Crescent, 13% of the Moon is Illuminated
Oct 12
Waning Crescent
Oct 15
New
Oct 22
First Quarter
Oct 29
Full
Nov 7
Last Quarter

Hourly Weather History & Observations

Time (EEST) Temp. Dew Point Humidity Pressure Visibility Wind Dir Wind Speed Gust Speed Precip Events Conditions
12:20 AM 59.0 °F 48.2 °F 67% 29.89 in - NW 8.1 mph - N/A   Clear
12:50 AM 59.0 °F 48.2 °F 67% 29.89 in - WNW 5.8 mph - N/A   Clear
1:20 AM 60.8 °F 50.0 °F 68% 29.89 in - South 4.6 mph - N/A   Clear
1:50 AM 59.0 °F 50.0 °F 72% 29.89 in - Variable 2.3 mph - N/A   Clear
2:20 AM 57.2 °F 50.0 °F 77% 29.89 in - NNW 4.6 mph - N/A   Clear
3:00 AM 58 °F 49 °F 65% 29.82 in 12 mi NE 3.5 mph - -   Scattered Clouds
3:50 AM 57.2 °F 50.0 °F 77% 29.92 in - Variable 2.3 mph - N/A   Clear
4:20 AM 55.4 °F 48.2 °F 77% 29.92 in - Calm Calm - N/A   Clear
4:50 AM 55.4 °F 50.0 °F 82% 29.92 in - North 4.6 mph - N/A   Clear
5:20 AM 55.4 °F 48.2 °F 77% 29.92 in - Calm Calm - N/A   Clear
5:50 AM 51.8 °F 48.2 °F 88% 29.95 in - SSW 4.6 mph - N/A   Clear
6:20 AM 51.8 °F 48.2 °F 88% 29.95 in - SW 4.6 mph - N/A   Clear
6:50 AM 53.6 °F 48.2 °F 82% 29.95 in - SW 3.5 mph - N/A   Clear
7:20 AM 55.4 °F 50.0 °F 82% 29.95 in - West 4.6 mph - N/A   Clear
7:50 AM 57.2 °F 50.0 °F 77% 29.95 in - WSW 5.8 mph - N/A   Clear
8:20 AM 59.0 °F 50.0 °F 72% 29.98 in - WSW 4.6 mph - N/A   Clear
8:50 AM 62.6 °F 50.0 °F 63% 29.98 in - Variable 2.3 mph - N/A   Clear
9:00 AM 63 °F 50 °F 53% 29.92 in 6 mi NW 2.3 mph - -   Scattered Clouds
9:20 AM 66.2 °F 51.8 °F 60% 29.98 in - Variable 1.2 mph - N/A   Clear
9:50 AM 69.8 °F 50.0 °F 49% 29.98 in 6.2 mi NNW 10.4 mph - N/A   Partly Cloudy
10:20 AM 69.8 °F 48.2 °F 46% 29.98 in 6.2 mi NNW 13.8 mph - N/A   Partly Cloudy
10:50 AM 71.6 °F 48.2 °F 43% 29.98 in 6.2 mi NNW 11.5 mph - N/A   Partly Cloudy
11:20 AM 73.4 °F 44.6 °F 36% 29.98 in 6.2 mi North 13.8 mph - N/A   Partly Cloudy
11:50 AM 73.4 °F 44.6 °F 36% 29.98 in 6.2 mi NW 12.7 mph - N/A   Partly Cloudy
12:20 PM 73.4 °F 41.0 °F 31% 29.98 in 6.2 mi NW 12.7 mph - N/A   Scattered Clouds
12:50 PM 75.2 °F 39.2 °F 27% 29.98 in 6.2 mi NNW 11.5 mph - N/A   Scattered Clouds
1:20 PM 75.2 °F 39.2 °F 27% 29.98 in 6.2 mi NW 11.5 mph - N/A   Scattered Clouds
1:50 PM 75.2 °F 39.2 °F 27% 29.98 in 6.2 mi WNW 8.1 mph - N/A   Scattered Clouds
2:20 PM 75.2 °F 39.2 °F 27% 29.98 in 6.2 mi NW 11.5 mph - N/A   Scattered Clouds
2:50 PM 75.2 °F 39.2 °F 27% 29.98 in 6.2 mi NNW 11.5 mph - N/A   Scattered Clouds
3:00 PM 76 °F 39 °F 16% 29.91 in 6 mi NNW 11.5 mph - -   Partly Cloudy
3:20 PM 77.0 °F 37.4 °F 24% 29.98 in 6.2 mi NW 12.7 mph - N/A   Scattered Clouds
3:50 PM 77.0 °F 37.4 °F 24% 29.98 in 6.2 mi WNW 13.8 mph - N/A   Partly Cloudy
4:20 PM 75.2 °F 39.2 °F 27% 29.98 in 6.2 mi NW 11.5 mph - N/A   Partly Cloudy
4:50 PM 75.2 °F 39.2 °F 27% 29.98 in 6.2 mi WNW 15.0 mph - N/A   Partly Cloudy
5:20 PM 73.4 °F 39.2 °F 29% 29.98 in 6.2 mi WNW 10.4 mph - N/A   Partly Cloudy
5:50 PM 71.6 °F 39.2 °F 31% 30.01 in - NW 10.4 mph - N/A   Clear
6:20 PM 69.8 °F 39.2 °F 33% 30.01 in 6.2 mi WNW 10.4 mph - N/A   Scattered Clouds
6:50 PM 69.8 °F 41.0 °F 35% 30.01 in - NW 11.5 mph - N/A   Clear
7:20 PM 69.8 °F 39.2 °F 33% 30.01 in - NW 12.7 mph - N/A   Clear
7:50 PM 69.8 °F 39.2 °F 33% 30.04 in - NW 13.8 mph - N/A   Clear
8:20 PM 68.0 °F 41.0 °F 37% 30.04 in - NW 12.7 mph - N/A   Clear
8:50 PM 66.2 °F 41.0 °F 40% 30.04 in - NW 11.5 mph - N/A   Clear
9:00 PM 67 °F 41 °F 27% 29.98 in 12 mi NW 11.5 mph - -  
9:20 PM 66.2 °F 41.0 °F 40% 30.04 in - NW 10.4 mph - N/A   Clear
9:50 PM 64.4 °F 41.0 °F 42% 30.04 in - NW 11.5 mph - N/A   Clear
10:20 PM 60.8 °F 42.8 °F 52% 30.06 in - NW 6.9 mph - N/A   Clear
10:50 PM 60.8 °F 42.8 °F 52% 30.06 in - NW 8.1 mph - N/A   Clear
11:20 PM 62.6 °F 42.8 °F 48% 30.06 in - NW 10.4 mph - N/A   Clear
11:50 PM 60.8 °F 42.8 °F 52% 30.06 in - WNW 9.2 mph - N/A   Clear